EHI
7 5 4 4 3 3 3 3 3 3 3 3 3 3 3 3 3 3 3 3 3 3 3 3 3 3 3 3 3 3 3 3 3 3 4 4 4 5 5 4 2 1 1
7 5 4 3 3 3 3 3 3 3 3 3 3 3 3 3 3 4 3 3 3 3 3 3 3 3 3 3 3 3 3 3 3 3 3 4 4 4 4 3 3 2 1
6 4 3 3 3 3 3 3 3 3 3 3 3 3 3 3 4 4 4 3 3 3 3 3 3 3 3 3 3 4 3 3 3 3 3 3 3 3 3 3 3 3 2
6 6 5 4 3 3 3 3 3 3 3 3 3 3 3 3 3 4 3 3 3 3 3 3 3 3 3 3 4 4 4 3 3 3 3 3 3 3 3 3 3 3 4
10 10 9 5 3 3 3 3 3 3 3 3 3 3 3 3 3 3 3 3 3 3 3 3 3 3 3 3 4 4 4 3 4 3 3 3 3 3 3 3 3 4 5
17 15 10 6 3 3 3 3 3 3 3 3 3 3 3 3 3 3 3 3 3 3 3 3 3 3 3 3 3 4 4 5 5 4 3 3 3 4 3 3 4 5 6
23 18 11 8 5 4 3 3 3 3 3 3 3 3 3 3 3 3 3 3 3 3 3 3 3 3 3 3 3 3 6 9 7 4 3 3 4 5 4 4 4 5 6
25 19 13 10 7 5 4 4 4 4 4 4 4 4 4 3 3 3 3 3 3 3 3 3 3 3 3 3 3 4 9 13 9 4 3 3 4 5 5 4 4 4 4
19 16 12 10 9 7 6 5 5 5 6 6 6 6 5 4 3 3 3 4 4 4 3 3 3 3 3 3 4 5 9 11 8 4 3 3 3 4 4 4 4 4 4
10 10 10 11 12 11 9 7 7 7 7 6 6 6 6 5 4 3 4 4 5 5 4 4 3 3 3 3 5 7 10 9 7 4 3 3 3 3 3 3 3 4 4
8 8 10 13 14 14 13 11 9 8 7 6 6 7 7 6 4 3 3 4 4 5 5 4 4 3 3 4 6 11 12 10 6 5 4 4 4 3 3 3 3 3 4
12 11 12 12 14 17 16 13 11 10 9 7 6 7 8 7 4 3 3 3 4 4 4 4 3 3 4 5 7 11 13 9 5 4 5 6 5 4 3 3 3 3 3
17 15 14 14 16 20 18 13 12 12 12 10 8 8 8 7 5 5 4 4 4 4 3 3 3 3 3 4 5 8 9 5 4 5 6 7 6 4 3 3 3 3 3
22 20 19 19 21 24 22 15 12 13 15 14 10 8 7 8 7 7 8 7 4 3 3 3 3 3 3 3 4 6 6 3 3 6 7 8 7 4 3 3 3 3 2
26 26 26 25 26 27 26 18 11 11 14 15 13 9 8 9 9 9 10 9 5 4 4 3 3 3 3 3 4 5 4 4 4 5 7 8 8 5 4 3 3 3 2
32 33 35 33 30 28 24 17 10 8 11 14 14 12 10 9 9 8 7 8 6 4 4 4 4 3 3 3 3 4 4 4 4 5 6 8 7 6 5 5 5 4 4
42 43 41 37 35 31 23 15 9 7 10 14 17 16 11 8 7 6 5 5 5 4 5 5 4 4 3 3 3 3 4 4 4 5 7 9 8 7 7 8 9 8 8
50 50 42 38 41 38 26 18 12 10 13 17 19 17 11 7 7 6 5 4 4 4 4 5 4 3 3 3 3 4 4 5 5 5 7 10 11 10 10 11 13 13 12
58 55 47 43 45 42 31 23 16 15 18 20 19 17 11 6 5 6 5 4 4 4 4 4 5 5 5 4 3 3 4 5 7 7 7 8 11 14 13 12 14 14 13
62 60 54 51 50 46 36 27 22 20 21 21 21 19 14 8 5 5 4 4 4 4 4 4 6 7 6 5 4 3 3 6 11 14 10 7 10 15 17 16 15 13 12
64 62 58 55 53 49 42 33 27 23 21 21 23 24 20 13 8 6 4 4 3 4 4 4 5 5 6 5 4 3 3 6 12 17 14 10 10 13 17 21 21 18 15
64 62 60 57 55 52 45 38 31 25 23 22 24 27 25 19 14 9 6 5 4 5 4 4 4 4 4 4 3 3 3 5 8 11 13 12 13 14 17 22 26 25 22
64 62 60 59 57 54 48 41 35 30 26 25 27 29 28 24 19 14 9 7 7 6 5 4 5 5 4 3 3 3 3 4 4 6 8 10 15 18 17 17 22 27 28
62 61 61 59 58 56 51 45 39 33 29 29 30 32 31 27 22 18 14 12 12 9 6 6 7 6 5 4 4 3 4 4 4 4 5 7 13 18 16 13 16 24 28
57 58 58 57 57 55 51 46 40 33 28 29 31 32 32 29 26 21 18 18 18 14 10 9 8 7 6 7 6 5 4 4 4 4 4 5 9 12 12 11 13 19 24
54 55 55 55 55 52 49 46 41 33 28 28 30 32 32 32 29 24 20 22 22 17 13 12 10 7 7 8 8 6 4 4 5 5 4 4 6 8 10 11 12 16 20
Wind_Speed
14 14 13 12 12 13 13 13 13 13 12 12 12 12 12 13 13 13 13 13 13 13 13 14 13 13 14 14 14 14 14 14 14 15 15 15 14 13 13 14 14 12 15
17 15 13 13 13 13 13 13 12 12 12 12 12 12 12 12 13 13 13 13 13 13 13 13 13 13 13 13 13 13 13 12 13 14 15 14 13 13 13 13 14 10 15
17 15 13 12 13 13 12 12 12 12 12 11 11 11 11 12 12 12 13 12 13 13 13 13 13 13 12 12 12 11 11 11 12 13 12 9 10 13 14 15 15 14 15
17 14 13 13 13 12 12 11 11 11 11 11 11 11 11 11 11 12 12 12 12 13 13 13 12 12 12 11 10 9 9 9 9 9 6 8 8 12 14 14 14 14 14
17 16 14 13 13 12 12 11 11 11 11 11 11 11 11 11 11 12 12 12 12 12 12 12 12 12 11 10 9 8 7 7 6 5 8 8 7 11 13 13 14 13 13
18 16 14 13 13 12 11 11 11 11 11 11 11 11 11 11 11 12 11 11 11 12 12 11 11 11 10 9 8 6 5 4 2 6 8 8 7 10 12 13 13 13 13
17 16 14 13 13 12 11 11 10 10 11 11 11 11 11 11 11 11 11 11 11 11 11 11 11 10 9 8 6 5 3 2 1 7 8 7 7 11 12 12 12 12 12
17 17 14 14 13 11 11 11 10 10 10 10 10 11 11 11 11 10 11 11 11 11 10 10 10 10 8 6 4 2 2 3 5 9 9 8 9 11 12 12 12 11 11
16 16 14 13 12 11 11 10 10 10 10 10 10 10 10 10 10 10 10 10 10 10 10 10 10 8 6 4 2 1 2 3 2 5 10 7 10 12 12 12 11 11 11
10 12 13 13 12 11 10 10 10 10 9 9 9 9 10 10 10 11 10 9 10 10 9 9 9 7 5 3 1 2 3 3 1 8 7 8 11 12 12 11 11 10 10
8 7 9 11 11 10 10 11 10 10 9 8 8 9 8 6 8 7 10 9 9 9 8 8 7 6 5 4 3 3 3 1 5 7 6 11 11 12 11 11 10 10 10
7 7 6 7 8 8 7 9 6 7 7 5 4 6 4 3 4 8 9 9 9 8 7 7 7 6 5 3 4 4 2 2 5 7 7 12 11 11 11 10 10 10 10
8 6 6 6 5 5 5 5 4 3 4 4 4 3 3 3 4 6 4 5 5 7 5 6 6 4 3 2 1 2 1 1 3 6 7 11 11 11 11 10 10 9 9
8 6 6 6 5 4 3 3 3 3 3 3 4 3 3 2 2 3 3 4 4 3 3 3 2 2 2 2 1 1 1 2 4 5 7 11 11 10 10 10 10 9 9
7 6 6 6 5 4 2 1 2 3 3 4 3 2 2 2 2 3 2 2 3 3 3 2 1 2 1 1 1 1 1 2 4 6 6 11 11 10 10 10 10 10 9
6 6 6 5 5 3 1 0 1 2 2 2 3 3 2 1 2 2 2 1 1 2 2 2 2 2 1 0 1 1 1 2 3 5 7 8 10 10 10 10 10 10 10
7 6 6 5 6 4 3 2 1 1 2 2 2 2 2 2 2 2 1 1 1 1 1 1 1 1 2 2 2 2 2 2 3 3 6 6 7 10 11 11 11 11 11
7 6 5 5 7 5 3 2 1 0 1 1 2 2 2 2 3 2 2 2 2 2 2 2 2 2 1 1 1 1 1 2 3 4 4 6 6 7 9 12 12 12 12
7 6 4 3 5 5 4 2 2 1 0 1 2 2 2 3 3 2 1 1 2 2 2 2 2 1 1 1 2 2 2 2 3 5 4 5 5 6 7 10 13 13 13
7 6 5 4 4 4 3 2 1 1 1 1 1 2 2 2 3 2 2 2 2 1 1 1 1 1 1 2 3 2 2 3 3 3 4 4 5 6 7 8 8 9 14
7 6 5 5 4 3 3 3 3 2 2 2 3 3 4 3 3 2 1 2 2 1 2 2 1 2 2 2 1 1 2 3 4 3 3 3 4 5 5 7 6 5 6
8 6 5 4 5 4 3 2 2 2 3 3 2 2 3 3 3 4 3 2 2 1 1 1 1 1 2 2 1 1 1 1 2 4 3 3 3 3 4 6 5 5 4
8 7 5 5 5 4 3 2 2 1 1 1 2 2 3 3 3 2 3 3 2 2 2 2 2 3 3 2 1 1 1 1 1 1 2 1 1 1 1 2 4 5 5
7 7 5 5 5 4 4 4 4 3 2 2 2 2 3 3 3 3 3 3 2 2 2 3 3 2 2 2 1 2 2 1 1 1 1 0 1 1 1 1 1 2 3
7 7 6 5 4 4 3 3 3 2 2 1 1 2 2 2 3 3 3 3 2 2 3 3 1 2 2 2 2 2 2 2 2 2 2 1 0 0 1 1 1 2 2
6 6 6 6 4 4 3 2 2 2 1 1 1 1 2 2 2 3 3 3 3 3 3 2 2 2 2 2 2 2 2 2 2 2 2 2 2 1 1 1 1 2 2
Wind_Direction
102 102 99 95 94 94 93 93 93 91 89 88 88 88 88 89 88 90 91 90 90 90 90 90 92 91 92 92 94 96 98 98 101 103 102 101 101 100 103 110 105 100 104
107 106 100 98 96 95 94 93 93 92 92 90 90 91 91 90 90 90 91 91 93 94 94 94 94 93 94 94 96 99 102 107 109 110 106 99 98 99 100 100 100 107 107
110 112 107 99 99 97 95 96 95 95 93 92 92 94 95 94 95 95 94 94 96 99 98 97 96 95 96 97 101 106 113 119 120 121 116 105 99 98 100 102 106 108 108
116 115 106 104 101 99 98 98 97 96 95 94 94 95 95 97 98 97 97 97 98 99 100 99 97 97 98 99 103 110 121 129 133 136 118 105 103 102 104 107 110 110 110
107 105 109 108 103 101 100 99 99 98 97 96 96 95 96 96 98 98 98 98 98 101 101 99 97 97 99 102 105 110 119 126 142 133 96 91 95 111 111 113 112 112 112
115 113 113 113 108 106 105 103 102 100 99 99 98 98 98 99 100 99 99 98 98 101 102 99 99 100 102 104 108 110 112 120 165 107 101 104 106 115 116 115 114 113 114
115 115 119 118 114 112 109 106 105 103 102 102 102 102 101 102 102 103 102 101 98 102 105 103 103 103 104 105 107 103 90 31 142 107 104 103 114 120 120 118 116 116 116
117 117 122 123 121 118 115 112 111 109 106 106 108 106 106 107 107 106 106 105 104 106 107 105 106 105 106 106 104 88 56 347 96 105 103 104 119 124 124 122 121 123 121
121 127 135 136 131 125 121 118 116 114 114 115 117 117 116 114 113 111 110 111 109 110 112 111 112 112 110 110 108 6 5 355 61 110 109 109 122 126 126 125 126 126 124
116 129 139 141 142 143 135 132 127 125 125 127 129 130 129 128 124 123 118 116 116 115 117 119 121 124 127 136 211 289 317 336 119 99 101 116 124 126 127 129 130 129 128
114 124 136 136 146 147 142 141 143 142 141 146 146 148 154 153 139 138 117 125 125 125 128 132 136 143 156 183 225 261 294 225 99 94 99 121 128 130 133 134 135 135 133
128 126 127 129 141 141 139 142 155 157 154 173 155 167 180 156 133 120 129 135 139 141 147 157 162 174 197 193 204 227 250 153 115 108 118 132 133 136 139 140 141 142 142
135 125 119 109 103 115 126 149 146 147 149 158 147 155 155 141 136 133 148 149 158 167 175 165 184 205 195 180 182 204 211 103 102 109 131 140 141 144 147 148 150 151 150
131 135 116 100 91 74 78 116 145 145 150 141 146 188 154 155 151 149 159 161 166 178 170 175 194 194 164 159 168 227 127 105 111 116 140 148 150 153 156 160 163 164 165
133 131 110 105 95 84 62 18 122 118 138 138 148 169 148 146 135 135 131 153 182 165 163 179 169 137 138 175 175 143 93 99 115 127 137 156 156 161 165 169 172 174 176
137 131 123 125 123 117 121 8 43 108 117 130 140 147 144 122 115 122 149 172 184 150 139 153 155 159 179 192 160 149 149 127 121 130 144 159 168 171 175 179 182 184 185
141 135 136 151 146 155 175 198 158 167 149 131 128 142 162 153 147 160 167 192 166 125 135 169 171 184 192 184 183 186 175 159 154 157 153 163 172 182 185 187 188 189 193
142 144 167 171 152 162 180 195 172 152 132 135 144 151 161 161 173 186 187 183 167 179 189 184 217 200 198 186 185 201 179 172 175 181 177 171 170 177 190 194 194 195 198
142 151 167 153 149 163 174 182 184 145 149 172 167 162 176 188 176 191 207 161 193 196 202 217 173 200 200 198 206 200 201 198 188 196 191 184 177 171 176 191 199 201 204
143 150 160 164 157 163 161 170 186 180 207 225 191 174 183 203 184 198 205 194 225 204 212 221 162 190 236 231 238 206 207 199 199 195 200 194 182 181 181 178 191 206 211
145 153 165 169 159 166 172 177 183 193 204 212 214 182 183 206 185 195 247 179 223 220 207 202 196 207 232 228 226 248 246 218 195 190 203 200 187 185 180 169 179 186 198
152 159 165 168 166 180 179 178 189 197 208 199 201 163 194 199 197 194 203 234 225 215 223 242 228 240 254 230 197 198 263 283 252 220 189 199 196 185 186 179 179 182 183
157 162 168 161 164 179 174 177 190 178 236 200 183 178 203 206 207 220 193 224 231 223 204 223 221 226 247 255 203 183 190 228 265 284 218 187 161 159 173 174 172 173 176
160 160 154 155 163 166 175 193 189 191 207 206 197 185 191 207 211 218 216 216 236 247 206 228 217 226 230 253 250 236 226 214 198 282 317 222 182 176 178 183 172 151 152
160 157 154 151 159 166 184 197 199 208 208 205 200 184 199 208 215 222 219 213 220 239 236 244 224 228 220 230 244 245 242 222 216 208 245 262 266 200 171 139 145 106 118
150 153 152 151 158 169 189 194 193 220 235 255 249 254 232 221 222 230 223 210 211 231 238 238 237 229 232 238 257 263 244 218 219 211 216 213 222 224 106 83 105 100 100